Regional Weather Roundup
Issued by NWS

Home | Current Version | Previous Version | Graphics & Text | Print | Product List | Glossary On
Versions: 1 2 3 4 5 6 7 8 9 10 11 12 13 14 15 16 17 18 19 20 21 22 23 24 25 26 27 28 29 30 31 32 33 34 35 36 37 38 39 40 41 42 43 44 45 46 47 48 49 50
953
ASUS43 KBIS 210410
RWRND

NORTH DAKOTA REGIONAL WEATHER ROUNDUP
NATIONAL WEATHER SERVICE BISMARCK ND
1000 PM CST MON NOV 20 2017

NOTE: "FAIR" INDICATES FEW OR NO CLOUDS BELOW 12,000 FEET WITH NO
SIGNIFICANT WEATHER AND/OR OBSTRUCTIONS TO VISIBILITY.


NDZ001>003-009>011-017-210500-
NORTHWEST NORTH DAKOTA

CITY           SKY/WX    TMP DP  RH WIND       PRES   REMARKS
WILLISTON      PTCLDY    11   1  64 NW16      29.94R WCI  -6
MINOT          MOCLDY    14   4  64 W30G41    29.78R WCI  -7
MINOT AFB      CLOUDY    13   4  68 NW29G39   29.77R WCI  -8
$$

NDZ018>021-031>035-040>046-210500-
SOUTHWEST NORTH DAKOTA

CITY           SKY/WX    TMP DP  RH WIND       PRES   REMARKS
BISMARCK       PTCLDY    34  17  50 NW24G44   29.77R
DICKINSON      CLOUDY    30   9  41 NW29G37   29.78R WCI  15
GARRISON         N/A     14   6  70 NW32G40   29.80R WCI  -7
HETTINGER ARPT CLOUDY    33  16  49 NW20G26   29.81R
$$

NDZ004>008-012>016-024-026-027-054-210500-
NORTHEAST NORTH DAKOTA

CITY           SKY/WX    TMP DP  RH WIND       PRES   REMARKS
GRAND FORKS    PTCLDY    24  15  68 NW26G40   29.57R WCI   8
GRND FRKS AFB  CLEAR     23  13  65 NW24G32   29.58R WCI   7
DEVILS LAKE    FLURRIES  21  15  78 W31G37    29.61R WCI   2
$$

NDZ022-023-025-028>030-036>039-047>053-210500-
SOUTHEAST NORTH DAKOTA

CITY           SKY/WX    TMP DP  RH WIND       PRES   REMARKS
FARGO          CLEAR     30  20  66 NW17G31   29.60R WCI  18
JAMESTOWN      CLEAR     25  13  60 NW29G41   29.65R WCI   8
$$





USA.gov is the U.S. government's official web portal to all federal, state and local government web resources and services.